Tracking 29892 objects as of 21-Nov-2024
HD Live streaming from Space Station
objects crossing your sky now

ONEWEB-0261

Track ONEWEB-0261 now!
10-day predictions
ONEWEB-0261 is classified as:


NORAD ID: 48979
Int'l Code: 2021-061N
Perigee: 1,203.3 km
Apogee: 1,206.5 km
Inclination: 87.9 °
Period: 109.4 minutes
Semi major axis: 7575 km
RCS: Unknown
Launch date: July 1, 2021
Source: United Kingdom (UK)
Launch site: VOSTOCHNY COSMODROME (VOSTO)
Your satellite tracking list
Your tracking list is empty




NASA's NSSDC Master Catalog

Two Line Element Set (TLE):
1 48979U 21060N   24325.05345048  .00000109  00000-0  25040-3 0  9995
2 48979  87.9094 343.1900 0002077  78.5518 281.5846 13.16596935165415
Source of the keplerian elements: AFSPC